LOT511 EPWA-LZKZ

Flight info

Callsign LOT511
Flight time 0h 40m
Altitude 31000
Route EVINA M985 KOTEK N133 RAZEC
Aircraft E75S/M-SDE3GILORVW/S

Departure

Time 2026-04-26 17:27
Airport Warsaw Chopin Airport (EPWA)

Arrival

Time 2026-04-26 18:07
Airport Košice International Airport (LZKZ)
Time Latitude Longitude Altitude Speed Heading
2026-04-26 17:09 52.16881 20.97248 333 ft 0 kts 75°
2026-04-26 17:15 52.16881 20.97247 333 ft 0 kts 75°
2026-04-26 17:17 52.16879 20.97233 333 ft 2 kts 75°
2026-04-26 17:17 52.16874 20.97207 331 ft 2 kts 75°
2026-04-26 17:18 52.16870 20.97181 333 ft 2 kts 75°
2026-04-26 17:18 52.16866 20.97155 334 ft 2 kts 77°
2026-04-26 17:18 52.16863 20.97129 333 ft 2 kts 82°
2026-04-26 17:18 52.16863 20.97102 333 ft 2 kts 116°
2026-04-26 17:19 52.16870 20.97090 334 ft 0 kts 144°
2026-04-26 17:22 52.16867 20.97093 333 ft 2 kts 146°
2026-04-26 17:22 52.16838 20.97119 334 ft 8 kts 151°
2026-04-26 17:22 52.16775 20.97171 333 ft 13 kts 161°
2026-04-26 17:22 52.16710 20.97124 334 ft 12 kts 239°
2026-04-26 17:23 52.16648 20.97054 334 ft 13 kts 167°
2026-04-26 17:23 52.16549 20.97131 336 ft 19 kts 152°
2026-04-26 17:23 52.16417 20.97246 332 ft 24 kts 152°
2026-04-26 17:23 52.16264 20.97380 335 ft 25 kts 152°
2026-04-26 17:24 52.16122 20.97506 335 ft 21 kts 152°
2026-04-26 17:24 52.15983 20.97626 335 ft 24 kts 152°
2026-04-26 17:24 52.15829 20.97759 335 ft 26 kts 152°
2026-04-26 17:24 52.15687 20.97885 335 ft 19 kts 152°
2026-04-26 17:25 52.15598 20.97936 336 ft 14 kts 191°
2026-04-26 17:25 52.15539 20.97834 334 ft 14 kts 242°
2026-04-26 17:25 52.15499 20.97697 335 ft 13 kts 258°
2026-04-26 17:25 52.15542 20.97611 333 ft 9 kts 340°
2026-04-26 17:26 52.15550 20.97605 336 ft 0 kts 334°
2026-04-26 17:26 52.15633 20.97534 334 ft 46 kts 331°
2026-04-26 17:26 52.16147 20.97086 338 ft 120 kts 332°
2026-04-26 17:26 52.17001 20.96341 779 ft 149 kts 332°
2026-04-26 17:27 52.17942 20.95517 1816 ft 154 kts 331°
2026-04-26 17:27 52.18918 20.94654 2615 ft 166 kts 332°
2026-04-26 17:27 52.19957 20.93748 3375 ft 174 kts 333°
2026-04-26 17:27 52.21063 20.92783 3979 ft 186 kts 333°
2026-04-26 17:28 52.22187 20.91609 4565 ft 197 kts 321°
2026-04-26 17:28 52.23047 20.89801 5266 ft 208 kts 301°
2026-04-26 17:28 52.23504 20.87409 5786 ft 237 kts 281°
2026-04-26 17:28 52.23276 20.84602 6345 ft 264 kts 255°
2026-04-26 17:29 52.22220 20.82052 7125 ft 281 kts 229°
2026-04-26 17:29 52.21145 20.80824 7659 ft 288 kts 214°
2026-04-26 17:29 52.18650 20.79042 8611 ft 297 kts 205°
2026-04-26 17:29 52.16721 20.77880 9279 ft 302 kts 205°
2026-04-26 17:30 52.14734 20.76640 9998 ft 306 kts 206°
2026-04-26 17:30 52.12708 20.75328 10333 ft 323 kts 206°
2026-04-26 17:30 52.10545 20.73954 10561 ft 343 kts 205°
2026-04-26 17:30 52.08248 20.72573 10818 ft 359 kts 204°
2026-04-26 17:31 52.05860 20.71200 11322 ft 367 kts 204°
2026-04-26 17:31 52.03440 20.69796 11942 ft 372 kts 205°
2026-04-26 17:31 52.00988 20.68328 12632 ft 377 kts 206°
2026-04-26 17:31 51.98535 20.66844 13345 ft 384 kts 206°
2026-04-26 17:32 51.96005 20.65332 14100 ft 391 kts 207°
2026-04-26 17:32 51.93429 20.63800 14863 ft 396 kts 207°
2026-04-26 17:32 51.90817 20.62276 15657 ft 402 kts 207°
2026-04-26 17:32 51.88172 20.60727 16450 ft 407 kts 207°
2026-04-26 17:33 51.85492 20.59169 17218 ft 413 kts 207°
2026-04-26 17:33 51.82754 20.57623 18000 ft 419 kts 207°
2026-04-26 17:33 51.79983 20.56075 18748 ft 424 kts 207°
2026-04-26 17:34 51.74330 20.53024 20198 ft 430 kts 207°
2026-04-26 17:34 51.71584 20.51576 20862 ft 434 kts 207°
2026-04-26 17:34 51.68695 20.50082 21528 ft 437 kts 206°
2026-04-26 17:34 51.65781 20.48596 22169 ft 441 kts 206°
2026-04-26 17:35 51.62834 20.47132 22802 ft 444 kts 206°
2026-04-26 17:35 51.59861 20.45693 23397 ft 447 kts 205°
2026-04-26 17:35 51.56859 20.44281 23939 ft 451 kts 205°
2026-04-26 17:35 51.53829 20.42885 24342 ft 455 kts 205°
2026-04-26 17:36 51.50761 20.41528 24284 ft 456 kts 204°
2026-04-26 17:36 51.47705 20.40211 24359 ft 453 kts 204°
2026-04-26 17:36 51.44732 20.38910 25220 ft 447 kts 205°
2026-04-26 17:36 51.41714 20.37717 25323 ft 448 kts 198°
2026-04-26 17:37 51.38527 20.37797 24591 ft 466 kts 174°
2026-04-26 17:37 51.35405 20.39056 24174 ft 457 kts 170°
2026-04-26 17:37 51.32351 20.40259 23898 ft 442 kts 172°
2026-04-26 17:38 51.26371 20.42263 24791 ft 438 kts 174°
2026-04-26 17:38 51.23457 20.43173 25972 ft 425 kts 175°
2026-04-26 17:38 51.20569 20.44062 26532 ft 429 kts 175°
2026-04-26 17:38 51.17624 20.44978 27057 ft 433 kts 175°
2026-04-26 17:39 51.14649 20.45903 27560 ft 438 kts 175°
2026-04-26 17:39 51.11629 20.46841 28008 ft 444 kts 175°
2026-04-26 17:39 51.08585 20.47786 28503 ft 448 kts 175°
2026-04-26 17:39 51.05505 20.48739 28988 ft 452 kts 175°
2026-04-26 17:40 51.02400 20.49702 29459 ft 456 kts 175°
2026-04-26 17:40 51.00332 20.50344 29841 ft 456 kts 175°
2026-04-26 17:40 50.96176 20.51650 30151 ft 452 kts 175°
2026-04-26 17:40 50.93092 20.52624 30207 ft 451 kts 175°
2026-04-26 17:41 50.90014 20.53587 30239 ft 463 kts 175°
2026-04-26 17:41 50.86797 20.54590 30274 ft 477 kts 175°
2026-04-26 17:41 50.83498 20.55621 30274 ft 490 kts 175°
2026-04-26 17:41 50.80105 20.56687 30217 ft 503 kts 175°
2026-04-26 17:42 50.73135 20.58881 30202 ft 514 kts 175°
2026-04-26 17:42 50.66080 20.61089 30188 ft 517 kts 175°
2026-04-26 17:43 50.59005 20.63296 30191 ft 518 kts 175°
2026-04-26 17:43 50.51970 20.65481 30191 ft 518 kts 175°
2026-04-26 17:44 50.44893 20.67673 30198 ft 518 kts 175°
2026-04-26 17:44 50.37823 20.69854 30194 ft 517 kts 175°
2026-04-26 17:45 50.30756 20.72030 30198 ft 517 kts 175°
2026-04-26 17:45 50.23691 20.74196 30191 ft 517 kts 175°
2026-04-26 17:46 50.16669 20.76343 30193 ft 516 kts 175°
2026-04-26 17:46 50.09615 20.78494 30196 ft 516 kts 175°
2026-04-26 17:47 50.06077 20.79571 29853 ft 517 kts 175°
2026-04-26 17:47 50.04886 20.79935 29735 ft 517 kts 175°
2026-04-26 17:47 49.99086 20.81711 29141 ft 506 kts 175°
2026-04-26 17:47 49.95628 20.82762 28815 ft 505 kts 175°
2026-04-26 17:48 49.92186 20.83805 28455 ft 502 kts 175°
2026-04-26 17:48 49.88765 20.84841 28094 ft 499 kts 175°
2026-04-26 17:48 49.85365 20.85867 27744 ft 497 kts 175°
2026-04-26 17:48 49.81978 20.86888 27411 ft 494 kts 175°
2026-04-26 17:49 49.78644 20.87891 27064 ft 492 kts 174°
2026-04-26 17:49 49.75278 20.88902 26730 ft 490 kts 175°
2026-04-26 17:49 49.71939 20.89901 26401 ft 488 kts 174°
2026-04-26 17:49 49.68609 20.90897 26078 ft 486 kts 174°
2026-04-26 17:50 49.65289 20.91886 25757 ft 484 kts 174°
2026-04-26 17:50 49.61987 20.92868 25441 ft 482 kts 174°
2026-04-26 17:50 49.58714 20.93841 25103 ft 475 kts 174°
2026-04-26 17:50 49.55477 20.94802 24560 ft 469 kts 174°
2026-04-26 17:51 49.52305 20.95742 24035 ft 459 kts 174°
2026-04-26 17:51 49.49237 20.96649 23474 ft 450 kts 174°
2026-04-26 17:51 49.46183 20.97547 22903 ft 442 kts 174°
2026-04-26 17:51 49.43180 20.98428 22346 ft 435 kts 174°
2026-04-26 17:52 49.40214 20.99295 21828 ft 432 kts 174°
2026-04-26 17:52 49.37271 21.00154 21330 ft 430 kts 174°
2026-04-26 17:52 49.34353 21.01006 21121 ft 425 kts 174°
2026-04-26 17:52 49.31485 21.01922 20881 ft 428 kts 171°
2026-04-26 17:53 49.28582 21.02986 20679 ft 426 kts 171°
2026-04-26 17:53 49.25698 21.04027 20613 ft 431 kts 171°
2026-04-26 17:53 49.22751 21.05081 19929 ft 433 kts 171°
2026-04-26 17:54 49.16940 21.07157 18774 ft 424 kts 170°
2026-04-26 17:54 49.14081 21.08171 18160 ft 420 kts 170°
2026-04-26 17:54 49.11262 21.09170 17629 ft 412 kts 170°
2026-04-26 17:54 49.08485 21.10188 17066 ft 408 kts 169°
2026-04-26 17:55 49.05741 21.11210 16547 ft 402 kts 169°
2026-04-26 17:55 49.03064 21.12199 16013 ft 399 kts 169°
2026-04-26 17:55 49.00374 21.13192 15480 ft 395 kts 169°
2026-04-26 17:55 48.97714 21.14131 14961 ft 389 kts 174°
2026-04-26 17:56 48.95064 21.14465 14478 ft 378 kts 184°
2026-04-26 17:56 48.89895 21.14529 13520 ft 366 kts 184°
2026-04-26 17:57 48.84879 21.14655 12502 ft 355 kts 182°
2026-04-26 17:57 48.82450 21.14366 12065 ft 343 kts 195°
2026-04-26 17:57 48.80183 21.13586 11587 ft 336 kts 199°
2026-04-26 17:57 48.77924 21.12740 11151 ft 332 kts 199°
2026-04-26 17:58 48.71957 21.10615 9753 ft 326 kts 197°
2026-04-26 17:59 48.67617 21.09102 8934 ft 313 kts 197°
2026-04-26 17:59 48.65510 21.08365 8525 ft 308 kts 197°
2026-04-26 17:59 48.63425 21.07639 8108 ft 305 kts 196°
2026-04-26 17:59 48.61375 21.06933 7674 ft 298 kts 196°
2026-04-26 18:00 48.59387 21.06252 7301 ft 287 kts 196°
2026-04-26 18:00 48.57470 21.05594 6930 ft 279 kts 196°
2026-04-26 18:00 48.55600 21.04948 6564 ft 271 kts 196°
2026-04-26 18:00 48.53788 21.04323 6270 ft 263 kts 195°
2026-04-26 18:01 48.51981 21.03993 5815 ft 263 kts 174°
2026-04-26 18:01 48.50352 21.05040 5520 ft 257 kts 137°
2026-04-26 18:01 48.49429 21.07238 5267 ft 245 kts 103°
2026-04-26 18:01 48.49099 21.09691 4966 ft 231 kts 94°
2026-04-26 18:02 48.48823 21.12042 4561 ft 223 kts 95°
2026-04-26 18:02 48.48632 21.13539 4365 ft 215 kts 96°
2026-04-26 18:02 48.48755 21.16324 4040 ft 188 kts 60°
2026-04-26 18:02 48.49499 21.17828 3907 ft 174 kts 34°
2026-04-26 18:03 48.50546 21.18639 3590 ft 167 kts 13°
2026-04-26 18:03 48.51662 21.18990 3412 ft 162 kts 10°
2026-04-26 18:03 48.52738 21.19350 3166 ft 160 kts 11°
2026-04-26 18:03 48.53820 21.19741 3027 ft 160 kts 12°
2026-04-26 18:04 48.54887 21.20115 2828 ft 153 kts 11°
2026-04-26 18:04 48.55896 21.20468 2507 ft 145 kts 12°
2026-04-26 18:04 48.56843 21.20800 2217 ft 136 kts 12°
2026-04-26 18:05 48.58586 21.21475 1882 ft 118 kts 12°
2026-04-26 18:05 48.59395 21.21750 1790 ft 118 kts 11°
2026-04-26 18:05 48.60200 21.22030 1705 ft 121 kts 11°
2026-04-26 18:05 48.61033 21.22295 1543 ft 123 kts 11°
2026-04-26 18:06 48.61868 21.22592 1378 ft 123 kts 11°
2026-04-26 18:06 48.62694 21.22867 1193 ft 125 kts 11°
2026-04-26 18:06 48.63541 21.23165 1056 ft 125 kts 11°
2026-04-26 18:06 48.64389 21.23454 907 ft 125 kts 10°
2026-04-26 18:07 48.65231 21.23745 759 ft 120 kts 11°
2026-04-26 18:07 48.65940 21.23992 755 ft 85 kts 13°
2026-04-26 18:07 48.66400 21.24151 751 ft 53 kts 12°
2026-04-26 18:07 48.66625 21.24231 757 ft 48 kts 12°
2026-04-26 18:08 48.66997 21.24360 755 ft 39 kts 12°
2026-04-26 18:08 48.67191 21.24424 757 ft 16 kts
2026-04-26 18:08 48.67235 21.24360 755 ft 10 kts 285°
2026-04-26 18:08 48.67254 21.24250 753 ft 12 kts 284°
2026-04-26 18:09 48.67274 21.24127 755 ft 10 kts 283°
2026-04-26 18:09 48.67279 21.24093 754 ft 3 kts 283°
2026-04-26 18:09 48.67287 21.24042 755 ft 7 kts 283°
2026-04-26 18:09 48.67300 21.23960 755 ft 9 kts 283°
2026-04-26 18:10 48.67329 21.23901 754 ft 5 kts 328°
2026-04-26 18:10 48.67344 21.23880 755 ft 2 kts 291°
2026-04-26 18:10 48.67339 21.23852 754 ft 3 kts 226°
2026-04-26 18:10 48.67333 21.23846 751 ft 0 kts 214°
2026-04-26 18:11 48.67334 21.23846 751 ft 0 kts 214°